Home > Weather > Meschede > Past weeks

Flag for Germany Past Weather in Meschede, North Rhine-Westphalia, Germany — Yesterday and Last 2 Weeks

Now
61 °F

Scattered clouds.


Feels Like: 61 °F
Forecast: 53 / 67 °F
Wind: 13 mph from Southwest

Location: Paderborn / Lippstadt

Current Time: Jun 26, 2016 at 10:21:24 AM

Latest Report: Jun 26, 2016 at 9:50 AM


Visibility: N/A

Pressure: 30.04 "Hg

Humidity: 68%

Dew Point: 50 °F

Location of MeschedeLocation

Past Weather in Meschede — Graph

°F

Meschede Temperature Yesterday

Maximum temperature yesterday: 68 °F (at 12:20 AM)
Minimum temperature yesterday: 55 °F (at 8:20 PM)
Average temperature yesterday: 62 °F

High & Low Weather Summary for the Past Weeks

 TemperatureHumidityPressure
High90 °F (Jun 23, 2:50 PM)100% (Jun 12, 10:20 PM)30.24 "Hg (Jun 12, 10:20 PM)
Low48 °F (Jun 20, 12:50 AM)38% (Jun 23, 2:20 PM)29.47 "Hg (Jun 14, 3:20 PM)
Average62 °F77%29.89 "Hg
* Reported Jun 11 8:20 AM — Jun 26 8:50 AM, Meschede, Weather by CustomWeather, © 2016

Note: Actual official high and low records may vary slightly from our data, if they occured in-between our weather recording intervals... More about our weather records

Advertising

Meschede Weather History for the Previous 24 Hours

Scroll right to see more
 ConditionsComfort  
Time TempWeatherWind HumidityBarometerVisibility
8:50 AM
Sun, Jun 26
59 °FPassing clouds.9 mph77%30.04 "HgN/A
8:20 AM59 °FSunny.9 mph72%30.04 "Hg10 mi
7:50 AM57 °FSunny.8 mph82%30.04 "Hg10 mi
7:20 AM55 °FSunny.7 mph88%30.04 "Hg10 mi
6:50 AM54 °FPassing clouds.8 mph94%30.04 "Hg6 mi
6:20 AM54 °FPassing clouds.6 mph88%30.04 "Hg6 mi
5:50 AM54 °FPassing clouds.9 mph88%30.04 "Hg6 mi
5:20 AM54 °FPassing clouds.8 mph88%30.01 "HgN/A
4:50 AM54 °FPassing clouds.8 mph88%30.01 "HgN/A
3:50 AM54 °FPassing clouds.7 mph88%30.01 "HgN/A
3:20 AM54 °FPassing clouds.8 mph88%30.01 "HgN/A
2:50 AM54 °FPassing clouds.6 mph88%30.01 "HgN/A
2:20 AM52 °FPassing clouds.6 mph94%30.01 "HgN/A
1:50 AM54 °FPartly cloudy.5 mph94%30.01 "Hg5 mi
1:20 AM57 °FPartly cloudy.9 mph88%30.01 "Hg5 mi
12:50 AM57 °FPartly cloudy.9 mph94%30.01 "Hg5 mi
12:20 AM57 °FPassing clouds.6 mph94%30.04 "Hg4 mi
11:50 PM
Sat, Jun 25
57 °FPassing clouds.6 mph94%30.04 "HgN/A
11:20 PM57 °FPassing clouds.9 mph94%30.01 "HgN/A
10:50 PM57 °FPartly cloudy.3 mph94%30.01 "HgN/A
10:20 PM57 °FDrizzle. More clouds than sun.3 mph94%29.98 "HgN/A
9:50 PM55 °FDrizzle. More clouds than sun.6 mph100%29.98 "Hg5 mi
9:20 PM55 °FLight rain. Partly sunny.6 mph100%29.98 "HgN/A
8:50 PM55 °FLight rain. Mostly cloudy.6 mph94%29.98 "HgN/A
8:20 PM55 °FLight rain. Mostly cloudy.7 mph94%29.95 "Hg5 mi
7:50 PM57 °FPartly sunny.7 mph94%29.98 "Hg5 mi
7:20 PM57 °FPartly sunny.8 mph88%29.98 "Hg5 mi
6:50 PM57 °FLight rain. Partly sunny.9 mph94%29.95 "Hg4 mi
6:20 PM57 °FRain. Fog.17 mph94%29.92 "Hg2 mi
5:50 PM59 °FLight rain. Fog.13 mph100%29.92 "Hg2 mi
5:20 PM61 °FLight rain. Fog.8 mph88%29.92 "Hg2 mi
4:50 PM61 °FRain. Fog.8 mph100%29.89 "Hg1 mi
4:20 PM63 °FLight rain. Fog.7 mph94%29.89 "Hg1 mi
3:50 PM63 °FLight rain. Fog.6 mph94%29.89 "Hg1 mi
3:20 PM63 °FLight rain. Fog.5 mph94%29.89 "Hg1 mi
2:50 PM63 °FLight rain. Fog.5 mph94%29.89 "Hg1 mi
2:20 PM63 °FLight rain. Fog.6 mph94%29.92 "Hg2 mi
1:50 PM63 °FLight rain. Fog.5 mph94%29.92 "Hg2 mi
1:20 PM63 °FLight rain. Partly sunny.6 mph100%29.92 "Hg2 mi
12:50 PM64 °FLight rain. Partly sunny.3 mph94%29.92 "Hg2 mi
12:20 PM63 °FLight rain. Partly sunny.5 mph100%29.92 "Hg2 mi
11:50 AM63 °FLight rain. Partly sunny.5 mph100%29.92 "Hg2 mi
11:20 AM64 °FLight rain. Partly sunny.3 mph94%29.92 "Hg2 mi
10:50 AM64 °FFog.3 mph88%29.92 "Hg2 mi
10:20 AM63 °FFog.1 mph94%29.95 "Hg2 mi
Weather by CustomWeather, © 2016

See weather overviewHow to use our weather pages